Terminal Aerodrome Forecast
Issued by NWS

Home | Current Version | Previous Version | Text Only | Print | Product List | Glossary On
Versions: 1 2 3 4 5 6 7 8 9 10 11 12 13 14 15 16 17 18 19 20 21 22 23 24 25
000
FTUS41 KOKX 030817 AAA
TAFHPN
TAF AMD
KHPN 030817Z 0308/0406 VRB04KT 6SM BR SKC
      TEMPO 0310/0313 3SM BR
     FM031300 VRB04KT P6SM SCT250
      AMD NOT SKED=

USA.gov is the U.S. government's official web portal to all federal, state and local government web resources and services.